Omaha, IA

8:20 AM CDT on October 18, 2017 (GMT -0500)
Eppley Airfield

Weather History for KOMA - May, 2014

Change the Weather History Date:

Monday, May 26, 2014

  Actual Average Record
Temperature  
Mean Temperature 76 °F 66 °F  
Max Temperature 86 °F 77 °F 96 °F (1912)
Min Temperature 65 °F 54 °F 41 °F (1992)
Degree Days  
Heating Degree Days 0 3  
Month to date heating degree days 143 137  
Since 1 July heating degree days 6530 6139  
Cooling Degree Days 11 3  
Month to date cooling degree days 71 47  
Year to date cooling degree days 86 63  
Growing Degree Days 25 (Base 50)    
Moisture  
Dew Point 64 °F    
Average Humidity 70    
Maximum Humidity 93    
Minimum Humidity 47    
Precipitation  
Precipitation T in 0.16 in 3.10 in (1987)
Month to date precipitation 2.93 3.95  
Year to date precipitation 6.62 10.47  
Snow  
Snow 0.00 in 0.00 in - ()
Month to date snowfall 0.0 0.1  
Since 1 July snowfall 17.8 26.5  
Snow Depth 0.00 in    
Sea Level Pressure  
Sea Level Pressure 29.92 in    
Wind  
Wind Speed 10 mph (South)    
Max Wind Speed 17 mph    
Max Gust Speed 22 mph    
Visibility 10 miles    
Events Rain    
T = Trace of Precipitation, MM = Missing Value Source: NWS Daily Summary

Daily Weather History Graph

Daily Weather History Graph

Search for Another Location

Airport or City:

Trip Planner

Search our weather history database for the weather conditions in past years. The results will help you decide how hot, cold, wet, or windy it might be!

Date:

Astronomy

May. 26, 2014 Rise Set
Actual Time 5:56 AM CDT 8:45 PM CDT
Civil Twilight 5:23 AM CDT 9:18 PM CDT
Nautical Twilight 4:42 AM CDT 9:59 PM CDT
Astronomical Twilight 3:55 AM CDT 10:46 PM CDT
Moon 4:40 AM CDT (5/26) 6:48 PM CDT (5/26)
Length of Visible Light 15h 54m
Length of Day
14h 49m
Waning Crescent, 5% of the Moon is Illuminated
May 26
Waning Crescent
May 28
New
Jun 5
First Quarter
Jun 12
Full
Jun 19
Last Quarter

Hourly Weather History & Observations

Time (CDT) Temp. Heat Index Dew Point Humidity Pressure Visibility Wind Dir Wind Speed Gust Speed Precip Events Conditions
12:52 AM 66.9 °F - 64.9 °F 93% 29.96 in 10.0 mi SE 3.5 mph - 0.06 in Rain Light Rain
1:52 AM 66.9 °F - 64.9 °F 93% 29.94 in 10.0 mi SW 3.5 mph - 0.00 in Rain Light Rain
2:52 AM 66.0 °F - 64.0 °F 93% 29.91 in 9.0 mi SSE 8.1 mph - 0.00 in   Overcast
3:07 AM 66.2 °F - 64.4 °F 94% 29.93 in 7.0 mi SSE 10.4 mph - N/A   Overcast
3:18 AM 66.0 °F - 64.9 °F 96% 29.93 in 8.0 mi SSE 6.9 mph - N/A   Overcast
3:52 AM 66.2 °F - 64.4 °F 94% 29.94 in 10.0 mi SSE 9.2 mph - N/A   Overcast
4:15 AM 66.0 °F - 64.0 °F 93% 29.93 in 10.0 mi SSE 6.9 mph - N/A   Overcast
4:52 AM 66.0 °F - 63.0 °F 90% 29.92 in 10.0 mi South 8.1 mph - N/A   Overcast
5:52 AM 64.9 °F - 63.0 °F 93% 29.92 in 10.0 mi SE 6.9 mph - N/A   Overcast
6:52 AM 66.2 °F - 62.6 °F 88% 29.95 in 10.0 mi SSE 6.9 mph - N/A   Overcast
7:52 AM 66.0 °F - 64.0 °F 93% 29.95 in 10.0 mi SSE 6.9 mph - N/A   Overcast
8:44 AM 68.0 °F - 64.0 °F 87% 29.97 in 10.0 mi SSE 11.5 mph - N/A   Mostly Cloudy
8:52 AM 68.0 °F - 64.0 °F 87% 29.96 in 10.0 mi South 9.2 mph - N/A   Mostly Cloudy
9:06 AM 69.1 °F - 64.0 °F 84% 29.97 in 10.0 mi SSE 10.4 mph - N/A   Overcast
9:52 AM 70.0 °F - 64.9 °F 84% 29.95 in 10.0 mi SSE 9.2 mph - N/A   Overcast
10:36 AM 71.1 °F - 64.0 °F 78% 29.96 in 10.0 mi SSE 8.1 mph - N/A   Mostly Cloudy
10:52 AM 72.0 °F - 64.9 °F 78% 29.94 in 10.0 mi SE 10.4 mph - N/A   Mostly Cloudy
11:02 AM 72.0 °F - 64.9 °F 78% 29.97 in 10.0 mi SSE 9.2 mph - N/A   Mostly Cloudy
11:52 AM 75.2 °F - 64.4 °F 69% 29.97 in 10.0 mi South 8.1 mph - N/A   Mostly Cloudy
12:41 PM 79.0 °F - 66.0 °F 64% 29.96 in 10.0 mi South 9.2 mph - N/A   Mostly Cloudy
12:52 PM 78.1 °F - 64.9 °F 64% 29.93 in 10.0 mi SSW 10.4 mph - N/A   Mostly Cloudy
1:52 PM 80.6 °F 82.3 °F 64.4 °F 58% 29.93 in 10.0 mi SSW 6.9 mph - N/A   Mostly Cloudy
2:52 PM 82.0 °F 84.1 °F 66.0 °F 58% 29.88 in 10.0 mi SSW 9.2 mph - N/A   Mostly Cloudy
3:52 PM 84.9 °F 85.9 °F 63.0 °F 48% 29.87 in 10.0 mi SW 12.7 mph 18.4 mph N/A   Mostly Cloudy
4:52 PM 84.2 °F 85.0 °F 62.6 °F 48% 29.89 in 10.0 mi SSW 9.2 mph - N/A   Mostly Cloudy
5:52 PM 84.2 °F 85.0 °F 62.6 °F 48% 29.87 in 10.0 mi SSW 13.8 mph - N/A   Mostly Cloudy
6:52 PM 84.0 °F 84.5 °F 62.1 °F 47% 29.85 in 10.0 mi South 16.1 mph - N/A   Mostly Cloudy
7:52 PM 82.0 °F 82.7 °F 61.0 °F 49% 29.85 in 10.0 mi South 15.0 mph - N/A   Mostly Cloudy
8:52 PM 80.1 °F 81.2 °F 62.1 °F 54% 29.87 in 10.0 mi South 9.2 mph - N/A   Mostly Cloudy
9:52 PM 78.8 °F - 62.6 °F 57% 29.91 in 10.0 mi South 11.5 mph - N/A   Mostly Cloudy
10:52 PM 75.9 °F - 64.0 °F 67% 29.90 in 10.0 mi South 9.2 mph - N/A   Mostly Cloudy
11:52 PM 75.0 °F - 64.0 °F 69% 29.88 in 10.0 mi South 10.4 mph - N/A   Mostly Cloudy